Zurück zum Katalog

STARLINK-34155

AktivKommunikationVLEO
NORAD 64019·PAYLOAD·🇺🇸 United States

Gestartet May 14, 2025 von Cape Canaveral Space Force Station

Loading…

Nächste Überflüge (nächste 24 Stunden)

TLE

AktuellSource: CelesTrak SupGP

Epoche: Sep 15, 2026, 02:30 UTC

1 64019C 25101AB  26258.10465278  .00011753  00000+0  42576-3 0  2586
2 64019  43.0036   8.3727 0001510 268.4416  40.8804 15.27568609    17

Verfolge STARLINK-34155 in Echtzeit mit AllMySat

Download on the App Store